Location: Haulchin
(50.3172°N, 3.4360°E)
Time: 20:47:19
(UTC+00:00)

Cosmos 2333 Rocket - Pass Details

Date: 18 August 2024
Orbit: 838 x 863 km, 70.8° (Epoch: 09 September)

Event Time Altitude Azimuth Distance (km) Brightness Sun altitude
Exits shadow 21:50:05 21° 89° (E) 1,828 3.7 -21.7°
Drops below altitude 10° 21:53:31 10° 53° (NE) 2,511 4.7 -22.0°
Sets 21:56:30 0° 39° (NE) 3,454 5.7 -22.3°
